Погода в Серебряных Ключах

Россия / Тульская область     54°14′59″N   37°55′18″E
темп.,
°C
ветер,
м/с
пор.,
м/с
влажн.,
%
обл.,
%
осадки,
мм/ч
давл.,
гПа
погр.,
м
12 мая, ср
ср1200:00+9юв34925 0.0 102661
03:00+7вюв22914 0.0 102613
06:00+8вюв22850 0.0 102652
09:00+9всв3589100 0.8 1026299
12:00+10св1285100 1.6 1023280
15:00+9юз3397100 6.0 1020215
18:00+9юз2397100 4.6 1019193
21:00+7юв379773 4.6 1020172
13 мая, чт
чт1300:00+6вюв489565 0.0 1020154
03:00+6в4109636 0.0 1020188
06:00+8вюв51392100 0.0 1019342
09:00+12вюв51081100 0.0 1019510
12:00+15вюв5773100 0.1 1017734
15:00+17вюв796273 0.1 10141220
18:00+10ю369587 8.4 1015348
21:00+9ююв2394100 8.4 101634
14 мая, пт
пт1400:00+8ю349499 0.0 101755
03:00+8ююв339348 0.0 101830
06:00+9юв3490100 0.0 101893
09:00+14юв4683100 0.0 1018362
12:00+19юв577195 0.0 1016863
15:00+22юв696423 0.0 10141522
18:00+20ююв7127296 1.8 1013447
21:00+16ююв41291100 4.1 1012211
15 мая, сб
сб1500:00+15ююв2293100 1.5 101229
03:00+15ююв3692100 1.5 1011100
06:00+15вюв4894100 0.6 1011194
09:00+18юв41183100 0.7 1010358
12:00+18ююв598368 4.8 1010539
15:00+21ю710702 6.3 10091319
18:00+20ююз59779 0.8 1010844
21:00+15ююз411905 2.1 1010230
16 мая, вс
вс1600:00+13юз3995100 0.0 1011221
03:00+12зюз499615 0.0 1013234
06:00+11юз410910 0.0 1014342
09:00+15зюз58740 0.0 1015700
12:00+18юз56637 0.0 10151353
15:00+20зюз565810 0.0 10151608
18:00+19зюз2469100 0.0 1016229
21:00+14ссв228789 0.0 101618